Stündliche Wetter Abakanovo

Heute, 7 März, Sonntag

Zeit Temperatur Niederschläge Wind Luftdruck Luftfeuchtigkeit
00:00 -8°C° 0.6 mm 7 m/S 729 mmHg 91%
01:00 -8°C° 0.6 mm 7 m/S 728 mmHg 92%
02:00 -7°C° 0.6 mm 7 m/S 726 mmHg 92%
03:00 -7°C° 0.7 mm 7 m/S 725 mmHg 92%
04:00 -7°C° 0.7 mm 7 m/S 724 mmHg 92%
05:00 -6°C° 0.7 mm 7 m/S 723 mmHg 93%
06:00 -7°C° 0.9 mm 7 m/S 722 mmHg 89%
07:00 -7°C° 0.9 mm 7 m/S 722 mmHg 85%
08:00 -8°C° 0.9 mm 7 m/S 722 mmHg 82%
09:00 -8°C° 0 mm 6 m/S 722 mmHg 71%
10:00 -8°C° 0 mm 6 m/S 722 mmHg 61%
11:00 -7°C° 0 mm 5 m/S 722 mmHg 51%
12:00 -7°C° 0.2 mm 5 m/S 722 mmHg 61%
13:00 -7°C° 0.2 mm 5 m/S 722 mmHg 72%
14:00 -8°C° 0.2 mm 4 m/S 722 mmHg 82%
15:00 -8°C° 0.3 mm 4 m/S 722 mmHg 79%
16:00 -8°C° 0.3 mm 4 m/S 722 mmHg 75%
17:00 -8°C° 0.3 mm 4 m/S 722 mmHg 72%
18:00 -9°C° 0.1 mm 4 m/S 722 mmHg 78%
19:00 -9°C° 0.1 mm 4 m/S 722 mmHg 84%
20:00 -9°C° 0.1 mm 4 m/S 722 mmHg 90%
21:00 -10°C° 0.4 mm 4 m/S 723 mmHg 90%
22:00 -9°C° 0.4 mm 3 m/S 723 mmHg 91%
23:00 -9°C° 0.4 mm 3 m/S 723 mmHg 91%

Morgen, 8 März, Montag

Zeit Temperatur Niederschläge Wind Luftdruck Luftfeuchtigkeit
00:00 -10°C° 0.1 mm 3 m/S 723 mmHg 90%
01:00 -12°C° 0.1 mm 3 m/S 723 mmHg 90%
02:00 -14°C° 0.1 mm 3 m/S 724 mmHg 89%
03:00 -14°C° 0 mm 3 m/S 724 mmHg 89%
04:00 -14°C° 0 mm 4 m/S 724 mmHg 90%
05:00 -14°C° 0 mm 4 m/S 725 mmHg 90%
06:00 -14°C° 0.1 mm 5 m/S 726 mmHg 89%
07:00 -14°C° 0.1 mm 5 m/S 727 mmHg 88%
08:00 -13°C° 0.1 mm 5 m/S 728 mmHg 88%
09:00 -13°C° 0.1 mm 5 m/S 728 mmHg 85%
10:00 -12°C° 0.1 mm 5 m/S 729 mmHg 83%
11:00 -12°C° 0.1 mm 5 m/S 730 mmHg 81%
12:00 -12°C° 0 mm 5 m/S 730 mmHg 81%
13:00 -12°C° 0 mm 5 m/S 731 mmHg 80%
14:00 -12°C° 0 mm 5 m/S 732 mmHg 80%
15:00 -11°C° 0 mm 4 m/S 732 mmHg 82%
16:00 -12°C° 0 mm 4 m/S 733 mmHg 84%
17:00 -12°C° 0 mm 4 m/S 733 mmHg 85%
18:00 -13°C° 0 mm 3 m/S 734 mmHg 88%
19:00 -14°C° 0 mm 3 m/S 735 mmHg 90%
20:00 -14°C° 0 mm 2 m/S 735 mmHg 92%
21:00 -14°C° 0 mm 2 m/S 736 mmHg 93%
22:00 -15°C° 0 mm 2 m/S 736 mmHg 95%
23:00 -16°C° 0 mm 2 m/S 736 mmHg 96%

übermorgen, 9 März, Dienstag

Zeit Temperatur Niederschläge Wind Luftdruck Luftfeuchtigkeit
00:00 -17°C° 0 mm 2 m/S 737 mmHg 97%
01:00 -17°C° 0 mm 2 m/S 737 mmHg 97%
02:00 -18°C° 0 mm 2 m/S 737 mmHg 98%
03:00 -18°C° 0 mm 2 m/S 738 mmHg 98%
04:00 -19°C° 0 mm 2 m/S 738 mmHg 98%
05:00 -19°C° 0 mm 2 m/S 738 mmHg 98%
06:00 -18°C° 0 mm 2 m/S 739 mmHg 96%
07:00 -18°C° 0 mm 2 m/S 739 mmHg 95%
08:00 -17°C° 0 mm 2 m/S 740 mmHg 93%
09:00 -16°C° 0 mm 2 m/S 740 mmHg 88%
10:00 -15°C° 0 mm 2 m/S 740 mmHg 83%
11:00 -14°C° 0 mm 2 m/S 740 mmHg 79%
12:00 -13°C° 0 mm 2 m/S 741 mmHg 77%
13:00 -12°C° 0 mm 2 m/S 741 mmHg 75%
14:00 -10°C° 0 mm 2 m/S 741 mmHg 73%
15:00 -12°C° 0 mm 2 m/S 741 mmHg 77%
16:00 -10°C° 0 mm 1 m/S 741 mmHg 81%
17:00 -11°C° 0 mm 1 m/S 740 mmHg 85%
18:00 -11°C° 0 mm 1 m/S 741 mmHg 86%
19:00 -12°C° 0 mm 0 m/S 741 mmHg 88%
20:00 -12°C° 0 mm 0 m/S 741 mmHg 89%
21:00 -12°C° 0.1 mm 1 m/S 741 mmHg 91%
22:00 -12°C° 0.1 mm 1 m/S 741 mmHg 92%
23:00 -14°C° 0.1 mm 2 m/S 741 mmHg 94%

10 März, Mittwoch

Zeit Temperatur Niederschläge Wind Luftdruck Luftfeuchtigkeit
00:00 -15°C° 0.6 mm 3 m/S 741 mmHg 94%
01:00 -14°C° 0.6 mm 3 m/S 741 mmHg 94%
02:00 -15°C° 0.6 mm 4 m/S 740 mmHg 94%
03:00 -16°C° 0.7 mm 4 m/S 740 mmHg 93%
04:00 -16°C° 0.7 mm 4 m/S 740 mmHg 93%
05:00 -16°C° 0.7 mm 4 m/S 740 mmHg 93%
06:00 -16°C° 0.2 mm 4 m/S 740 mmHg 93%
07:00 -16°C° 0.2 mm 4 m/S 740 mmHg 92%
08:00 -16°C° 0.2 mm 4 m/S 740 mmHg 91%
09:00 -15°C° 0 mm 4 m/S 740 mmHg 89%
10:00 -14°C° 0 mm 4 m/S 741 mmHg 87%
11:00 -12°C° 0 mm 4 m/S 741 mmHg 85%
12:00 -12°C° 0 mm 4 m/S 741 mmHg 84%
13:00 -12°C° 0 mm 4 m/S 741 mmHg 82%
14:00 -11°C° 0 mm 4 m/S 741 mmHg 81%
15:00 -12°C° 0 mm 4 m/S 741 mmHg 82%
16:00 -14°C° 0 mm 4 m/S 741 mmHg 84%
17:00 -15°C° 0 mm 4 m/S 741 mmHg 85%
18:00 -16°C° 0 mm 4 m/S 741 mmHg 87%
19:00 -17°C° 0 mm 4 m/S 741 mmHg 89%
20:00 -18°C° 0 mm 4 m/S 741 mmHg 90%
21:00 -18°C° 0 mm 4 m/S 740 mmHg 91%
22:00 -17°C° 0 mm 3 m/S 740 mmHg 92%
23:00 -18°C° 0 mm 3 m/S 740 mmHg 93%

11 März, Donnerstag

Zeit Temperatur Niederschläge Wind Luftdruck Luftfeuchtigkeit
00:00 -18°C° 0 mm 3 m/S 740 mmHg 93%
01:00 -18°C° 0 mm 3 m/S 739 mmHg 94%
02:00 -18°C° 0 mm 3 m/S 739 mmHg 94%
03:00 -18°C° 0 mm 3 m/S 739 mmHg 95%
04:00 -18°C° 0 mm 3 m/S 738 mmHg 95%
05:00 -19°C° 0 mm 3 m/S 738 mmHg 95%
06:00 -18°C° 0 mm 3 m/S 738 mmHg 95%
07:00 -18°C° 0 mm 3 m/S 738 mmHg 94%
08:00 -18°C° 0 mm 3 m/S 737 mmHg 94%
09:00 -16°C° 0 mm 3 m/S 737 mmHg 92%
10:00 -13°C° 0 mm 2 m/S 737 mmHg 91%
11:00 -10°C° 0 mm 2 m/S 737 mmHg 89%
12:00 -10°C° 0 mm 3 m/S 736 mmHg 89%
13:00 -8°C° 0 mm 3 m/S 735 mmHg 89%
14:00 -7°C° 0 mm 3 m/S 735 mmHg 89%
15:00 -6°C° 0 mm 3 m/S 734 mmHg 87%
16:00 -7°C° 0 mm 4 m/S 734 mmHg 86%
17:00 -5°C° 0 mm 4 m/S 733 mmHg 85%
18:00 -5°C° 0.1 mm 4 m/S 732 mmHg 87%
19:00 -7°C° 0.1 mm 5 m/S 732 mmHg 89%
20:00 -7°C° 0.1 mm 5 m/S 731 mmHg 91%
21:00 -7°C° 0.2 mm 5 m/S 730 mmHg 92%
22:00 -8°C° 0.2 mm 6 m/S 729 mmHg 92%
23:00 -6°C° 0.2 mm 6 m/S 728 mmHg 92%

12 März, Freitag

Zeit Temperatur Niederschläge Wind Luftdruck Luftfeuchtigkeit
00:00 -6°C° 0.4 mm 6 m/S 726 mmHg 92%
01:00 -6°C° 0.4 mm 6 m/S 725 mmHg 93%
02:00 -6°C° 0.4 mm 6 m/S 724 mmHg 94%
03:00 -7°C° 0.8 mm 7 m/S 722 mmHg 94%
04:00 -6°C° 0.8 mm 7 m/S 721 mmHg 94%
05:00 -6°C° 0.8 mm 7 m/S 720 mmHg 94%
06:00 -4°C° 1 mm 6 m/S 719 mmHg 95%
07:00 -3°C° 1 mm 6 m/S 718 mmHg 96%
08:00 -2°C° 1 mm 5 m/S 717 mmHg 97%
09:00 -1°C° 0.9 mm 5 m/S 717 mmHg 98%
10:00 -1°C° 0.9 mm 5 m/S 717 mmHg 99%
11:00 0°C° 0.9 mm 4 m/S 717 mmHg 99%
12:00 0°C° 0.5 mm 5 m/S 717 mmHg 99%
13:00 -1°C° 0.5 mm 5 m/S 718 mmHg 99%
14:00 -1°C° 0.5 mm 5 m/S 718 mmHg 98%
15:00 -1°C° 0 mm 5 m/S 718 mmHg 96%
16:00 -1°C° 0 mm 5 m/S 718 mmHg 95%
17:00 -1°C° 0 mm 5 m/S 719 mmHg 93%
18:00 -1°C° 0 mm 5 m/S 719 mmHg 93%
19:00 -1°C° 0 mm 5 m/S 718 mmHg 94%
20:00 -1°C° 0 mm 5 m/S 718 mmHg 94%
21:00 -1°C° 0.4 mm 5 m/S 718 mmHg 95%
22:00 -1°C° 0.4 mm 5 m/S 718 mmHg 96%
23:00 -1°C° 0.4 mm 5 m/S 718 mmHg 97%
Mehr zeigen

Wir brauchen deine Erlaubnis

Meteoprog und unser Service Anbieter werden persönliche Daten aufbewahren, so wie Cookies, Geräte Bezeichnung oder ähnliche Technologien von deinem Gerät und Prozess, so wie Persönliche Daten Inhalte und Werbungen, genauso wie social Media und den Verkehr zu analysieren.

  • Aufbewahrung und/oder Zugang zu deiner Geräte Informationen.

    Cookies, Geräte Bezeichnung oder andere Informationen, können aufbewahrt oder Zugang zu deinem Gerät erhalten, für den Grund, der oben angegeben wird.

  • Personalisierte Werbung und Inhalte, Messungen, Einblick in das Publikum und Produkt Entwicklung.

    Werbungen und Inhalte können personalisiert werden, basierend auf ein Profil. Mehr Daten können besser personalisierte Werbungen und Inhalte hinzufügen. Werbung und Inhalte können gezeigt und gemessen werden. Einblicke über das Publikum, welche die Werbung gesehen haben und den Inhalt, können abgeleitet werden. So wie Daten können genutzt werden, um es zu verbessern oder die Benutzer Erfahrung zu verbessern das System und die Software.

Wenn du “Ich stimme zu” klickst, erlaubst du uns, die Cookies zu benutzen die Geräte Bezeichnung, den Web oder ähnliche Technologien zu benutzen. Deine Settings, können in deinem Gerät bei deinem Browser geändert werden.

Für den bestimmten Zweck, berechtigten Interessen beruhen darauf, mehr als auf den Inhalt. Du kannst mehr darüber in unseren Privaten und Cookie Politik lesen.